| time (UTC) | temp F | wind direction | speed MPH | gust MPH | rain 1hr in | rain 24hr in | rain mn in | humidity % | barometer mb |
| 20260503011012 | 63 | 0 | 9.0 | 9.0 | 0.00 | 0.00 | 0.00 | 38 | 88.8 |
| 20260503010012 | 65 | 315 | 7.0 | 7.0 | 0.00 | 0.00 | 0.00 | 39 | 88.8 |
| 20260503004011 | 66 | 0 | 9.0 | 9.0 | 0.00 | 0.00 | 0.00 | 39 | 88.8 |
| 20260503003011 | 68 | 270 | 9.0 | 9.0 | 0.00 | 0.00 | 0.00 | 37 | 88.8 |
| 20260503002012 | 68 | 270 | 8.0 | 8.0 | 0.00 | 0.00 | 0.00 | 37 | 88.8 |
| 20260503001012 | 66 | 270 | 15.0 | 15.0 | 0.00 | 0.00 | 0.00 | 37 | 88.8 |
| 20260503000011 | 65 | 338 | 11.0 | 11.0 | 0.00 | 0.00 | 0.00 | 37 | 88.8 |
| 20260502235012 | 63 | 0 | 8.0 | 8.0 | 0.00 | 0.00 | 0.00 | 38 | 88.8 |
| 20260502234012 | 63 | 22 | 8.0 | 8.0 | 0.00 | 0.00 | 0.00 | 39 | 88.8 |
| 20260502233011 | 64 | 22 | 11.0 | 11.0 | 0.00 | 0.00 | 0.00 | 39 | 88.8 |
| 20260502232011 | 64 | 292 | 7.0 | 7.0 | 0.00 | 0.00 | 0.00 | 38 | 88.8 |
| 20260502231011 | 64 | 338 | 11.0 | 11.0 | 0.00 | 0.00 | 0.00 | 39 | 88.8 |
| 20260502230011 | 65 | 270 | 9.0 | 9.0 | 0.00 | 0.00 | 0.00 | 38 | 88.8 |
| 20260502225012 | 64 | 315 | 12.0 | 12.0 | 0.00 | 0.00 | 0.00 | 38 | 88.8 |
| 20260502224011 | 64 | 338 | 9.0 | 9.0 | 0.00 | 0.00 | 0.00 | 39 | 88.8 |
| 20260502223011 | 65 | 315 | 10.0 | 10.0 | 0.00 | 0.00 | 0.00 | 39 | 88.8 |
| 20260502222012 | 66 | 270 | 9.0 | 9.0 | 0.00 | 0.00 | 0.00 | 39 | 88.8 |
| 20260502221012 | 66 | 270 | 12.0 | 12.0 | 0.00 | 0.00 | 0.00 | 38 | 88.8 |
| 20260502220012 | 66 | 315 | 10.0 | 10.0 | 0.00 | 0.00 | 0.00 | 38 | 88.8 |
| 20260502214012 | 65 | 270 | 9.0 | 9.0 | 0.00 | 0.00 | 0.00 | 39 | 88.8 |
| 20260502213011 | 65 | 270 | 12.0 | 12.0 | 0.00 | 0.00 | 0.00 | 38 | 88.8 |
| 20260502212011 | 64 | 0 | 11.0 | 11.0 | 0.00 | 0.00 | 0.00 | 40 | 88.8 |
| 20260502211012 | 65 | 315 | 8.0 | 8.0 | 0.00 | 0.00 | 0.00 | 41 | 88.8 |
| 20260502210012 | 64 | 338 | 16.0 | 16.0 | 0.00 | 0.00 | 0.00 | 40 | 88.8 |
| 20260502205012 | 64 | 22 | 8.0 | 8.0 | 0.00 | 0.00 | 0.00 | 43 | 88.8 |
| 20260502204011 | 65 | 338 | 8.0 | 8.0 | 0.00 | 0.00 | 0.00 | 42 | 88.8 |
| 20260502203011 | 66 | 338 | 11.0 | 11.0 | 0.00 | 0.00 | 0.00 | 42 | 88.8 |
| 20260502202012 | 66 | 292 | 10.0 | 10.0 | 0.00 | 0.00 | 0.00 | 41 | 88.8 |
| 20260502201011 | 64 | 292 | 16.0 | 16.0 | 0.00 | 0.00 | 0.00 | 41 | 88.8 |
| 20260502200011 | 62 | 315 | 12.0 | 12.0 | 0.00 | 0.00 | 0.00 | 44 | 88.8 |
| 20260502195011 | 62 | 0 | 7.0 | 7.0 | 0.00 | 0.00 | 0.00 | 46 | 88.8 |
| 20260502194011 | 62 | 315 | 6.0 | 6.0 | 0.00 | 0.00 | 0.00 | 48 | 88.8 |
| 20260502193011 | 62 | 292 | 13.0 | 13.0 | 0.00 | 0.00 | 0.00 | 45 | 88.8 |
| 20260502192011 | 62 | 270 | 7.0 | 7.0 | 0.00 | 0.00 | 0.00 | 46 | 88.8 |
| 20260502191011 | 62 | 22 | 12.0 | 12.0 | 0.00 | 0.00 | 0.00 | 46 | 88.8 |
| 20260502190011 | 62 | 338 | 8.0 | 8.0 | 0.00 | 0.00 | 0.00 | 44 | 88.8 |
| 20260502185012 | 62 | 0 | 9.0 | 9.0 | 0.00 | 0.00 | 0.00 | 46 | 88.8 |
| 20260502184012 | 62 | 22 | 11.0 | 11.0 | 0.00 | 0.00 | 0.00 | 46 | 88.8 |
| 20260502183012 | 62 | 22 | 13.0 | 13.0 | 0.00 | 0.00 | 0.00 | 46 | 88.8 |
| 20260502181012 | 62 | 22 | 6.0 | 6.0 | 0.00 | 0.00 | 0.00 | 46 | 88.8 |
| 20260502164012 | 58 | 90 | 5.0 | 5.0 | 0.00 | 0.00 | 0.00 | 49 | 88.8 |
| 20260502163012 | 57 | 22 | 8.0 | 8.0 | 0.00 | 0.00 | 0.00 | 51 | 88.8 |
| 20260502162012 | 57 | 0 | 6.0 | 6.0 | 0.00 | 0.00 | 0.00 | 54 | 88.8 |
| 20260502161011 | 57 | 22 | 9.0 | 9.0 | 0.00 | 0.00 | 0.00 | 55 | 88.8 |
| 20260502152012 | 57 | 338 | 7.0 | 7.0 | 0.00 | 0.00 | 0.00 | 62 | 88.8 |
| 20260502151011 | 57 | 22 | 8.0 | 8.0 | 0.00 | 0.00 | 0.00 | 64 | 88.8 |
| 20260502123011 | 41 | 22 | 7.0 | 7.0 | 0.00 | 0.00 | 0.00 | 81 | 88.8 |
| 20260502122011 | 40 | 338 | 8.0 | 8.0 | 0.00 | 0.00 | 0.00 | 82 | 88.8 |
| 20260502121011 | 40 | 0 | 8.0 | 8.0 | 0.00 | 0.00 | 0.00 | 83 | 88.8 |
| 20260502115012 | 39 | 315 | 6.0 | 6.0 | 0.00 | 0.00 | 0.00 | 84 | 88.8 |
| 20260502114011 | 39 | 22 | 7.0 | 7.0 | 0.00 | 0.00 | 0.00 | 83 | 88.8 |
| 20260502113012 | 40 | 338 | 6.0 | 6.0 | 0.00 | 0.00 | 0.00 | 83 | 88.8 |
| 20260502112012 | 40 | 0 | 6.0 | 6.0 | 0.00 | 0.00 | 0.00 | 82 | 88.8 |
| 20260502111011 | 41 | 338 | 7.0 | 7.0 | 0.00 | 0.00 | 0.00 | 80 | 88.8 |
| 20260502110011 | 42 | 0 | 7.0 | 7.0 | 0.00 | 0.00 | 0.00 | 80 | 88.8 |
| 20260502105012 | 42 | 338 | 7.0 | 7.0 | 0.00 | 0.00 | 0.00 | 79 | 88.8 |
| 20260502104012 | 43 | 0 | 5.0 | 5.0 | 0.00 | 0.00 | 0.00 | 78 | 88.8 |
| 20260502103011 | 43 | 338 | 8.0 | 8.0 | 0.00 | 0.00 | 0.00 | 78 | 88.8 |
| 20260502102011 | 44 | 22 | 7.0 | 7.0 | 0.00 | 0.00 | 0.00 | 77 | 88.8 |
| 20260502101012 | 44 | 0 | 8.0 | 8.0 | 0.00 | 0.00 | 0.00 | 77 | 88.8 |
| 20260502091012 | 46 | 315 | 7.0 | 7.0 | 0.00 | 0.00 | 0.00 | 73 | 88.8 |
| 20260502071012 | 54 | 0 | 12.0 | 12.0 | 0.00 | 0.00 | 0.00 | 62 | 88.8 |
| 20260502070012 | 54 | 338 | 14.0 | 14.0 | 0.00 | 0.00 | 0.00 | 60 | 88.8 |
| 20260502065011 | 54 | 338 | 18.0 | 18.0 | 0.00 | 0.00 | 0.00 | 60 | 88.8 |
| 20260502064012 | 54 | 0 | 12.0 | 12.0 | 0.00 | 0.00 | 0.00 | 60 | 88.8 |
| 20260502063012 | 54 | 22 | 12.0 | 12.0 | 0.00 | 0.00 | 0.00 | 60 | 88.8 |
| 20260502062011 | 54 | 0 | 10.0 | 10.0 | 0.00 | 0.00 | 0.00 | 60 | 88.8 |
| 20260502061012 | 54 | 315 | 9.0 | 9.0 | 0.00 | 0.00 | 0.00 | 60 | 88.8 |
| 20260502060012 | 54 | 338 | 9.0 | 9.0 | 0.00 | 0.00 | 0.00 | 60 | 88.8 |
| 20260502055011 | 54 | 0 | 7.0 | 7.0 | 0.00 | 0.00 | 0.00 | 60 | 88.8 |
| 20260502054011 | 54 | 315 | 8.0 | 8.0 | 0.00 | 0.00 | 0.00 | 60 | 88.8 |
| 20260502053012 | 54 | 0 | 11.0 | 11.0 | 0.00 | 0.00 | 0.00 | 61 | 88.8 |
| 20260502052012 | 54 | 338 | 6.0 | 6.0 | 0.00 | 0.00 | 0.00 | 61 | 88.8 |
| 20260502051011 | 54 | 22 | 5.0 | 5.0 | 0.00 | 0.00 | 0.00 | 61 | 88.8 |
| 20260502050011 | 54 | 0 | 5.0 | 5.0 | 0.00 | 0.00 | 0.00 | 60 | 88.8 |
| 20260502045011 | 54 | 22 | 8.0 | 8.0 | 0.00 | 0.00 | 0.00 | 59 | 88.8 |
| 20260502044011 | 55 | 22 | 9.0 | 9.0 | 0.00 | 0.00 | 0.00 | 58 | 88.8 |
| 20260502043012 | 55 | 22 | 8.0 | 8.0 | 0.00 | 0.00 | 0.00 | 56 | 88.8 |
| 20260502042011 | 55 | 22 | 8.0 | 8.0 | 0.00 | 0.00 | 0.00 | 56 | 88.8 |
| 20260502041011 | 55 | 0 | 9.0 | 9.0 | 0.00 | 0.00 | 0.00 | 56 | 88.8 |
| 20260502040012 | 55 | 0 | 8.0 | 8.0 | 0.00 | 0.00 | 0.00 | 55 | 88.8 |
| 20260502035011 | 55 | 22 | 8.0 | 8.0 | 0.00 | 0.00 | 0.00 | 54 | 88.8 |
| 20260502034011 | 55 | 22 | 9.0 | 9.0 | 0.00 | 0.00 | 0.00 | 53 | 88.8 |
| 20260502033012 | 56 | 22 | 7.0 | 7.0 | 0.00 | 0.00 | 0.00 | 52 | 88.8 |
| 20260502032012 | 56 | 0 | 6.0 | 6.0 | 0.00 | 0.00 | 0.00 | 50 | 88.8 |
| 20260502031011 | 57 | 22 | 8.0 | 8.0 | 0.00 | 0.00 | 0.00 | 50 | 88.8 |
| 20260502030012 | 58 | 0 | 6.0 | 6.0 | 0.00 | 0.00 | 0.00 | 50 | 88.8 |
| 20260502025012 | 59 | 338 | 7.0 | 7.0 | 0.00 | 0.00 | 0.00 | 48 | 88.8 |
| 20260502024012 | 61 | 292 | 8.0 | 8.0 | 0.00 | 0.00 | 0.00 | 46 | 88.8 |
| 20260502023011 | 62 | 22 | 10.0 | 10.0 | 0.00 | 0.00 | 0.00 | 44 | 88.8 |
| 20260502022012 | 62 | 0 | 10.0 | 10.0 | 0.00 | 0.00 | 0.00 | 43 | 88.8 |
| 20260502021011 | 63 | 22 | 14.0 | 14.0 | 0.00 | 0.00 | 0.00 | 42 | 88.8 |
| 20260502020012 | 64 | 0 | 9.0 | 9.0 | 0.00 | 0.00 | 0.00 | 41 | 88.8 |
| 20260502015012 | 65 | 0 | 13.0 | 13.0 | 0.00 | 0.00 | 0.00 | 40 | 88.8 |
| 20260502014012 | 65 | 0 | 16.0 | 16.0 | 0.00 | 0.00 | 0.00 | 40 | 88.8 |
| 20260502013012 | 67 | 22 | 19.0 | 19.0 | 0.00 | 0.00 | 0.00 | 38 | 88.8 |
| 20260502012011 | 68 | 338 | 12.0 | 12.0 | 0.00 | 0.00 | 0.00 | 36 | 88.8 |